Theta_e
326 327 327 326 325 326 325 324 324 323 322 321 320 319 318 316 313 312 312 312 311 310 307 305 304 303 303 302 302 301 301 300 299 299 298 298 297 297 297 296 296 296
325 326 326 325 325 325 325 324 323 323 322 321 321 319 318 314 312 311 312 311 309 307 305 303 303 303 302 302 301 301 300 300 299 298 298 297 297 297 296 296 296 296
325 324 323 324 325 324 323 324 324 323 322 322 321 319 316 313 311 312 311 309 306 304 303 303 303 302 302 301 301 300 300 299 298 298 297 297 297 296 296 296 296 295
324 324 323 323 324 322 322 323 324 323 322 322 320 318 314 312 311 311 309 306 304 303 303 303 302 302 301 301 301 301 300 299 298 297 297 297 296 296 296 296 295 295
323 324 324 323 323 323 322 323 323 322 321 320 319 315 312 311 311 310 307 304 303 303 302 302 302 301 301 301 301 300 299 298 297 297 297 297 296 296 296 295 295 295
322 324 325 324 324 324 322 321 322 321 320 319 316 312 311 311 310 307 304 303 303 302 301 301 301 301 301 301 300 299 298 298 298 298 297 296 296 296 296 295 295 295
322 323 323 323 323 324 322 320 320 320 318 317 313 311 311 310 307 304 303 302 302 301 301 301 301 301 301 300 299 298 298 299 298 297 297 296 296 296 295 295 295 294
320 321 321 322 322 322 322 320 319 319 317 314 311 311 311 307 304 303 302 301 301 300 300 300 301 301 300 299 298 299 299 299 298 297 296 296 296 296 295 295 295 294
320 321 321 321 321 321 320 319 319 318 315 311 311 311 308 304 302 302 301 301 300 300 300 300 300 300 299 299 300 300 299 298 297 296 296 296 296 295 295 295 294 294
320 321 320 320 319 319 319 318 317 315 312 311 311 309 305 303 302 301 300 300 300 300 300 300 300 299 299 300 300 299 298 297 297 296 296 296 296 295 295 295 294 293
318 318 318 318 317 318 318 317 314 311 311 311 309 306 303 302 301 300 300 299 299 299 300 300 299 300 301 300 299 298 297 297 296 296 296 296 295 295 295 294 293 293
317 317 317 317 317 317 316 313 311 311 311 309 306 303 302 301 301 300 300 299 299 299 299 299 300 301 300 300 298 298 297 297 296 296 296 295 295 295 294 293 293 292
315 315 316 316 316 315 312 311 311 311 309 307 304 301 301 301 300 300 299 299 299 299 299 299 300 300 300 299 298 297 297 296 296 296 295 295 295 294 293 293 292 292
314 315 315 315 314 312 311 311 310 309 307 304 302 300 300 300 299 299 298 298 299 299 299 299 300 300 299 299 298 297 297 296 296 296 295 295 294 293 293 292 292 291
313 314 313 312 311 311 310 310 309 308 305 302 301 300 299 299 298 298 298 298 298 299 299 299 299 299 299 298 297 297 296 296 296 295 295 294 294 293 292 292 291 291
313 312 311 311 311 310 310 310 308 306 303 301 300 300 299 298 298 297 297 298 298 299 299 299 299 299 298 298 297 296 296 296 295 295 295 294 294 293 292 292 291 291
311 311 311 311 311 310 310 309 306 304 301 301 300 299 299 298 297 297 297 297 298 299 299 299 299 299 298 297 297 296 296 295 295 295 294 294 293 293 292 291 291 291
311 311 311 311 310 310 309 307 304 302 300 300 299 299 298 297 297 297 297 297 298 299 299 299 299 298 298 297 297 296 295 295 295 294 294 294 293 292 292 291 291 290
311 311 311 311 310 309 308 305 302 301 300 299 299 298 297 297 297 296 297 297 298 299 299 299 298 298 297 297 296 295 295 295 294 294 294 293 293 292 291 291 290 290
311 311 310 310 310 308 306 303 301 300 299 298 298 297 297 297 296 296 297 298 298 298 298 298 297 297 296 296 295 295 295 294 294 294 293 293 292 291 291 290 290 290
311 311 310 310 309 307 305 302 300 299 298 298 297 297 296 296 296 296 297 298 298 298 297 297 297 296 295 295 295 294 294 294 294 294 293 292 292 291 290 290 289 289
310 310 310 309 308 307 304 301 299 298 298 297 297 296 296 295 295 296 297 297 297 297 297 296 296 295 295 295 295 294 294 294 294 293 293 292 291 290 290 289 289 289
310 310 310 309 308 306 303 300 298 297 297 297 297 296 295 295 295 296 297 297 297 297 296 295 295 294 294 294 294 294 294 294 294 293 293 292 291 290 289 289 289 289
310 310 309 308 307 305 302 300 298 297 297 296 296 295 295 295 295 296 297 297 296 296 295 294 294 294 294 294 294 294 294 294 294 293 292 292 290 289 289 289 289 288
310 309 309 308 307 304 301 299 297 297 296 296 295 294 294 295 295 296 296 296 296 295 294 294 293 293 294 294 295 295 295 294 293 293 292 291 290 289 289 288 288 288
309 309 308 307 305 303 300 298 297 296 296 295 295 294 294 295 295 295 296 295 294 294 293 293 292 293 295 296 296 296 295 294 293 292 292 290 289 289 288 288 288 288
Wind_Speed
29 28 28 27 26 26 26 25 24 23 22 21 20 17 13 12 12 12 12 12 10 8 7 7 5 4 2 1 2 3 4 5 6 7 8 9 9 10 11 11 12 13
30 29 29 28 27 28 27 24 23 22 20 20 19 17 14 13 14 14 13 11 10 9 8 7 5 3 2 0 1 3 4 5 7 7 8 9 10 11 11 12 13 14
31 31 30 29 28 27 25 23 22 21 20 20 20 16 15 16 16 15 13 12 11 10 9 7 5 3 2 1 1 3 5 6 7 8 9 10 10 11 12 13 14 15
32 31 29 28 27 25 24 24 24 23 23 22 19 16 17 18 17 15 14 13 12 10 8 7 5 3 2 2 2 4 5 6 7 8 9 10 11 12 13 14 16 17
31 30 29 28 26 25 25 25 25 26 24 21 18 18 20 19 17 16 16 14 13 10 8 7 5 3 2 2 3 5 6 6 8 9 10 11 12 13 14 15 17 18
29 29 30 28 27 27 26 26 27 26 22 19 18 21 21 20 18 18 17 14 12 10 8 7 5 3 2 3 3 4 5 6 8 9 11 12 13 14 15 16 17 17
28 29 29 29 28 28 27 26 26 23 19 18 21 23 22 20 20 19 17 14 12 10 9 7 5 4 3 3 3 4 5 7 9 10 11 13 14 15 16 16 17 17
27 28 28 28 28 29 28 26 24 20 19 21 24 24 22 21 20 19 16 14 12 11 9 7 6 5 3 2 3 4 6 7 9 10 12 13 14 15 16 16 17 18
25 26 27 28 29 29 28 25 22 21 22 25 25 24 23 22 20 18 16 14 13 11 9 8 6 5 3 2 3 5 6 7 9 10 12 13 14 15 16 17 18 19
26 27 28 29 29 27 25 23 23 24 26 26 26 25 24 23 21 18 16 15 13 11 10 8 6 4 3 3 4 5 6 8 10 11 12 13 15 16 17 18 19 20
26 27 28 27 27 25 24 24 25 27 28 27 26 26 25 23 20 19 17 15 14 12 10 8 6 5 4 4 4 5 7 8 10 11 13 14 15 17 18 19 20 21
27 27 27 26 25 25 25 27 28 29 29 28 27 26 24 22 20 19 18 16 14 12 10 8 6 5 5 4 5 6 7 9 10 11 13 15 16 18 19 20 21 22
28 27 26 25 25 27 28 29 30 30 29 28 27 25 23 22 21 19 18 16 14 12 10 8 7 6 5 5 5 6 7 8 10 11 13 15 17 18 19 21 22 23
27 26 25 26 27 29 30 31 31 30 29 29 27 25 23 22 21 19 18 17 15 12 10 9 8 6 5 5 6 6 7 8 10 11 13 15 17 19 20 22 23 24
27 26 27 28 29 30 31 31 31 30 30 29 27 26 24 22 21 19 18 16 14 12 11 10 8 7 6 6 6 6 7 8 10 12 13 15 17 19 21 22 24 25
28 28 29 30 31 32 32 31 31 31 30 29 28 26 25 23 22 20 19 16 14 13 12 10 8 7 6 6 6 6 8 9 11 13 14 16 18 20 21 23 24 26
30 30 31 31 32 32 32 32 32 32 31 29 28 26 25 24 22 21 19 17 15 14 12 10 9 8 7 6 6 7 8 10 12 14 15 17 19 21 23 24 25 26
31 31 32 33 33 33 33 33 33 32 31 29 28 27 25 24 23 21 19 17 16 14 12 11 9 8 7 7 7 7 9 10 12 14 16 18 20 22 24 26 27 28
31 32 33 34 34 34 34 34 33 32 31 30 28 27 26 25 23 22 20 18 16 14 12 11 10 8 8 7 7 8 9 11 13 15 17 19 21 23 25 26 28 29
32 33 34 35 35 35 35 35 34 33 32 30 29 28 27 25 24 22 21 19 16 14 13 11 10 9 8 7 7 8 10 12 14 16 18 21 23 24 26 27 29 30
33 34 35 36 36 36 36 35 35 34 33 31 30 28 27 25 24 23 21 19 16 15 13 11 10 9 8 8 8 9 11 13 15 17 19 22 24 25 27 28 29 30
35 36 37 36 36 37 37 37 36 35 33 32 30 29 28 26 25 23 21 19 17 15 14 12 11 9 8 8 9 10 12 14 16 19 21 23 24 26 27 28 29 30
36 36 37 37 38 38 38 38 37 35 34 32 31 30 29 27 26 24 21 19 17 16 14 12 11 9 9 9 9 11 13 15 18 20 22 23 25 26 27 27 28 30
37 37 38 38 39 39 39 38 37 36 34 33 31 30 29 28 26 24 22 20 18 17 15 13 11 9 9 9 10 12 14 16 19 21 23 24 26 26 26 27 28 29
38 38 39 39 39 39 39 38 37 36 34 33 31 30 29 28 26 24 22 20 19 17 15 13 10 9 9 10 11 13 15 17 20 22 24 25 26 26 27 27 28 29
39 39 39 40 40 39 39 38 37 36 35 33 32 31 30 28 26 24 23 21 20 18 15 13 10 9 9 10 12 13 16 19 21 23 25 26 27 27 27 27 28 28
Wind_Direction
236 236 237 236 234 237 239 240 242 242 240 241 244 248 248 233 212 197 191 189 187 185 181 176 171 163 150 72 17 355 348 346 345 344 344 344 342 343 341 339 340 337
236 234 234 234 232 235 238 239 241 243 241 240 241 244 239 218 200 190 187 188 187 185 180 176 174 170 164 198 330 338 339 340 342 342 343 343 341 339 336 334 334 332
235 234 232 232 233 234 234 233 237 239 237 238 241 241 226 205 193 188 188 190 187 184 182 180 182 186 200 254 314 332 336 339 341 342 341 339 336 334 331 329 329 328
234 234 232 231 233 234 230 228 231 232 232 237 242 231 211 195 189 190 191 190 186 186 187 187 193 200 218 271 316 329 336 339 340 340 337 334 331 330 329 328 326 326
232 231 230 230 231 232 230 227 228 231 232 236 234 215 200 191 190 192 192 191 188 188 191 193 201 211 237 291 318 327 334 338 338 337 333 331 329 328 328 326 324 324
227 226 226 227 227 229 231 227 228 231 232 229 218 203 194 191 192 193 192 192 191 191 194 197 207 219 250 288 310 323 333 338 337 335 330 329 329 328 327 325 323 322
222 222 223 224 222 224 228 227 227 229 225 216 205 197 194 193 193 192 191 192 191 193 197 201 211 226 248 276 305 326 335 337 333 331 330 329 327 325 324 323 321 320
218 219 220 220 219 220 224 225 227 226 216 206 198 194 194 194 193 193 192 192 193 197 201 206 217 228 242 272 312 326 330 331 330 330 328 324 323 322 321 321 319 318
215 216 216 218 219 221 223 224 224 217 206 199 196 195 194 193 193 193 192 194 197 201 205 210 218 225 238 274 306 318 324 328 327 325 322 321 320 320 320 319 319 317
212 215 217 220 221 222 222 219 214 205 198 195 195 196 195 194 193 193 195 199 201 204 208 212 216 223 241 273 296 314 322 323 323 321 320 321 320 320 321 319 318 316
215 218 220 221 221 219 216 210 202 197 195 195 195 196 196 196 195 194 198 201 203 206 210 211 215 225 244 273 295 311 318 319 321 323 322 323 322 321 320 319 316 315
220 221 221 220 217 211 205 200 196 195 196 195 195 196 197 197 197 199 201 203 205 208 209 211 217 228 246 274 295 307 314 319 322 324 324 324 323 321 319 318 316 315
219 218 217 214 208 202 198 196 195 196 196 196 195 196 198 199 201 203 204 204 207 209 209 212 220 231 252 274 292 305 313 320 324 325 326 324 322 321 318 317 316 315
213 212 209 204 200 197 196 196 196 196 196 197 196 196 199 203 205 206 207 207 208 208 209 215 223 236 257 272 288 304 312 320 325 325 324 323 321 320 318 316 316 316
205 203 201 199 198 197 197 197 197 197 198 198 198 198 200 203 206 208 209 210 209 208 210 217 227 240 257 271 286 302 313 321 325 325 324 323 321 319 318 316 316 316
201 200 200 199 199 199 199 198 199 200 200 200 200 202 203 205 207 209 210 210 209 209 214 221 230 242 256 273 287 303 316 322 324 326 326 325 323 319 317 316 316 316
202 202 202 201 201 200 201 201 201 201 201 202 202 204 205 207 209 210 210 209 209 213 219 224 234 244 256 273 289 305 317 322 325 327 328 326 323 319 317 317 316 317
205 205 204 203 202 202 202 203 203 203 203 204 205 206 208 209 210 211 210 210 211 215 221 227 236 246 258 274 293 309 317 321 325 327 327 325 322 319 318 318 317 318
209 207 206 205 204 204 204 204 204 204 205 206 207 208 210 211 211 211 211 212 214 218 224 230 238 249 261 277 297 310 316 322 325 327 326 323 321 319 318 317 317 317
211 209 208 208 207 206 206 206 206 206 207 208 209 210 212 212 212 212 212 214 216 220 226 232 240 250 263 279 297 308 315 322 325 325 324 322 321 319 317 317 318 318
213 211 210 209 209 209 208 207 207 207 208 209 210 212 213 213 213 214 214 216 218 221 227 233 241 251 263 279 295 307 316 321 323 324 324 321 319 318 317 317 318 319
215 213 212 211 211 211 210 209 209 209 210 211 211 212 212 212 213 214 216 217 219 223 228 234 242 252 265 281 298 309 316 321 323 323 322 320 318 317 316 317 319 320
218 216 215 214 214 214 213 211 210 210 211 213 213 213 212 212 214 215 216 218 220 225 229 234 242 253 268 285 301 312 317 321 323 322 320 318 316 315 315 317 319 321
221 220 218 217 217 216 215 213 212 212 213 214 215 215 215 214 215 216 217 219 222 226 230 234 242 255 273 291 305 314 318 320 320 319 318 316 314 313 315 318 321 324
224 222 221 220 219 219 217 216 215 214 215 215 215 215 215 216 217 217 219 221 224 226 230 235 243 257 277 295 307 314 317 317 316 315 314 312 311 312 316 320 323 326
226 224 223 221 221 220 218 217 217 217 217 216 215 214 215 216 218 218 220 223 225 227 230 235 245 262 283 298 308 313 314 313 312 311 310 310 311 314 317 321 324 326